Location: Powder Track
(41.8531°N, 72.3584°W)
Time: 23:18:14
(UTC+00:00)

X-37B - Pass Details

Date: 23 June 2021
Orbit: 383 x 392 km, 45.0° (Epoch: 01 July)

Event Time Altitude Azimuth Distance (km) Brightness Sun altitude
Exits shadow 06:59:37 19° 128° (SE) 989 2.5 -18.3°
Drops below altitude 10° 07:00:40 10° 124° (ESE) 1,402 3.4 -18.2°
Sets 07:02:44 0° 120° (ESE) 2,254 4.5 -18.0°
